Date String (YYYY-MM-DD hh:mm:ss) UTC,Instrument flags,absolute air pressure of the measurement (hPa),sample flow rate (lpm),inlet stack bypass flow (lpm),air temperature of the measurement (°C),ambient temperature measured by the external sensor (°C),aerosol sample conditioner tube jacket temperature (°C),OPC LED temperature (°C),internal box temperature (°C),relative humidity of the measurement (%),span deviation,mass concentration of particles derived from Lorenz-Mie calculation of OPC scattering (μg/m³),mass concentration of particles derived from Lorenz-Mie calculation of OPC scattering (μg/m³),mass concentration of particles derived from Lorenz-Mie calculation of OPC scattering (μg/m³)
DateTimeUTC,F1_M11,P_M11,Q1_M11,Q2_M11,T1_M11,T2_M11,T3_M11,T4_M11,T5_M11,U1_M11,ZSPAN_M11,X0_M11,X2_M11,X1_M11
2024-02-20 16:00:00,SystemResetWarning,0828.8,5.00,000.00,021.8,021.3,000.0,030.0,023.6,14.7,0000.0,0001.63,0000.96,0000.71
2024-02-20 16:01:00,SystemResetWarning,0828.8,5.00,000.00,021.8,021.3,000.0,030.0,023.6,14.9,0000.0,0001.62,0000.97,0000.73
2024-02-20 16:02:00,SystemResetWarning,0828.8,5.00,000.00,021.8,021.4,000.0,030.0,023.6,14.9,0000.0,0001.54,0000.96,0000.73
2024-02-20 16:03:00,SystemResetWarning,0828.8,5.01,000.00,021.8,021.4,000.0,030.1,023.6,15.0,0000.0,0001.49,0000.97,0000.72
2024-02-20 16:04:00,SystemResetWarning,0828.7,5.00,000.00,021.8,021.4,000.0,030.1,023.7,14.8,0000.0,0001.42,0000.95,0000.72
2024-02-20 16:05:00,SystemResetWarning,0828.7,4.99,000.00,021.8,021.4,000.0,030.1,023.7,14.7,0000.0,0001.36,0000.93,0000.71
2024-02-20 16:06:00,SystemResetWarning,0828.7,4.99,000.00,021.9,021.4,000.0,030.1,023.7,15.0,0000.0,0001.64,0000.94,0000.72
2024-02-20 16:07:00,SystemResetWarning,0828.6,4.99,000.00,021.9,021.5,000.0,030.1,023.7,14.9,0000.0,0002.11,0000.98,0000.73
2024-02-20 16:08:00,SystemResetWarning,0828.7,5.01,000.00,021.9,021.5,000.0,030.1,023.7,14.7,0000.0,0002.17,0000.95,0000.72
2024-02-20 16:09:00,SystemResetWarning,0828.7,5.02,000.00,021.9,021.5,000.0,030.1,023.7,14.7,0000.0,0002.16,0000.94,0000.72
2024-02-20 16:10:00,SystemResetWarning,0828.7,5.00,000.00,021.9,021.5,000.0,030.2,023.8,14.8,0000.0,0002.14,0000.94,0000.73
2024-02-20 16:11:00,SystemResetWarning,0828.7,4.99,000.00,022.0,021.5,000.0,030.2,023.8,15.1,0000.0,0002.16,0000.95,0000.73
2024-02-20 16:12:00,SystemResetWarning,0828.7,4.99,000.00,022.0,021.6,000.0,030.2,023.8,14.8,0000.0,0002.19,0000.96,0000.72
2024-02-20 16:13:00,SystemResetWarning,0828.7,4.99,000.00,022.0,021.6,000.0,030.2,023.8,14.7,0000.0,0002.18,0000.96,0000.72
2024-02-20 16:14:00,SystemResetWarning,0828.8,5.01,000.00,022.0,021.6,000.0,030.2,023.8,14.6,0000.0,0002.07,0000.93,0000.72
2024-02-20 16:15:00,SystemResetWarning,0828.7,5.00,000.00,022.0,021.6,000.0,030.2,023.9,15.0,0000.0,0002.06,0000.93,0000.73
2024-02-20 16:16:00,SystemResetWarning,0828.7,5.00,000.00,022.0,021.6,000.0,030.2,023.9,14.5,0000.0,0002.15,0000.97,0000.74
2024-02-20 16:17:00,SystemResetWarning,0828.6,5.00,000.00,022.1,021.7,000.0,030.3,023.9,14.3,0000.0,0001.85,0000.96,0000.74
2024-02-20 16:18:00,SystemResetWarning,0828.5,5.00,000.00,022.1,021.7,000.0,030.3,023.9,14.3,0000.0,0001.80,0000.91,0000.73
2024-02-20 16:19:00,SystemResetWarning,0828.4,5.00,000.00,022.1,021.7,000.0,030.3,023.9,14.6,0000.0,0002.42,0000.94,0000.74
2024-02-20 16:20:00,SystemResetWarning,0828.4,5.00,000.00,022.1,021.7,000.0,030.3,023.9,14.3,0000.0,0002.43,0000.94,0000.74
2024-02-20 16:21:00,SystemResetWarning,0828.5,4.98,000.00,022.1,021.7,000.0,030.3,024.0,14.1,0000.0,0002.49,0000.96,0000.74
2024-02-20 16:22:00,SystemResetWarning,0828.5,4.99,000.00,022.1,021.7,000.0,030.4,024.0,14.2,0000.0,0002.63,0001.01,0000.75
2024-02-20 16:23:00,SystemResetWarning,0828.5,5.00,000.00,022.2,021.8,000.0,030.4,024.0,14.2,0000.0,0002.62,0000.99,0000.74
2024-02-20 16:24:00,SystemResetWarning,0828.6,5.01,000.00,022.2,021.8,000.0,030.4,024.0,14.1,0000.0,0002.70,0001.02,0000.74
2024-02-20 16:25:00,SystemResetWarning,0828.7,5.01,000.00,022.2,021.8,000.0,030.4,024.0,14.0,0000.0,0002.77,0001.04,0000.75
2024-02-20 16:26:00,SystemResetWarning,0828.7,5.00,000.00,022.2,021.8,000.0,030.4,024.1,14.0,0000.0,0002.79,0001.04,0000.75
2024-02-20 16:27:00,SystemResetWarning,0828.7,5.00,000.00,022.2,021.8,000.0,030.4,024.1,14.0,0000.0,0002.72,0001.00,0000.74
2024-02-20 16:28:00,SystemResetWarning,0828.6,4.99,000.00,022.3,021.9,000.0,030.5,024.1,14.0,0000.0,0002.64,0000.98,0000.74
2024-02-20 16:29:00,SystemResetWarning,0828.6,5.00,000.00,022.3,021.9,000.0,030.5,024.1,14.0,0000.0,0002.48,0000.98,0000.74
2024-02-20 16:30:00,SystemResetWarning,0828.6,5.00,000.00,022.3,021.9,000.0,030.5,024.1,14.2,0000.0,0001.66,0000.98,0000.75
2024-02-20 16:31:00,SystemResetWarning,0828.7,5.00,000.00,022.3,021.9,000.0,030.5,024.1,14.1,0000.0,0001.69,0001.00,0000.75
2024-02-20 16:32:00,SystemResetWarning,0828.6,5.00,000.00,022.3,021.9,000.0,030.5,024.1,14.3,0000.0,0001.67,0000.96,0000.75
2024-02-20 16:33:00,SystemResetWarning,0828.4,5.00,000.00,022.3,021.9,000.0,030.5,024.2,14.2,0000.0,0001.79,0000.92,0000.74
2024-02-20 16:34:00,SystemResetWarning,0828.4,5.01,000.00,022.4,021.9,000.0,030.6,024.2,13.9,0000.0,0001.78,0000.92,0000.74
2024-02-20 16:35:00,SystemResetWarning,0828.6,5.01,000.00,022.4,022.0,000.0,030.6,024.2,14.1,0000.0,0001.71,0000.89,0000.73
2024-02-20 16:36:00,SystemResetWarning,0828.6,5.00,000.00,022.4,022.0,000.0,030.6,024.2,14.3,0000.0,0001.83,0000.87,0000.72
2024-02-20 16:37:00,SystemResetWarning,0828.6,4.99,000.00,022.4,022.0,000.0,030.6,024.2,14.4,0000.0,0001.97,0000.89,0000.73
2024-02-20 16:38:00,SystemResetWarning,0828.6,5.00,000.00,022.4,022.0,000.0,030.6,024.3,14.2,0000.0,0001.98,0000.88,0000.72
2024-02-20 16:39:00,SystemResetWarning,0828.7,5.01,000.00,022.4,022.0,000.0,030.6,024.3,14.0,0000.0,0002.11,0000.90,0000.72
2024-02-20 16:40:00,SystemResetWarning,0828.7,5.01,000.00,022.5,022.1,000.0,030.7,024.3,14.0,0000.0,0002.11,0000.90,0000.72
2024-02-20 16:41:00,SystemResetWarning,0828.8,4.99,000.00,022.5,022.1,000.0,030.7,024.3,14.4,0000.0,0002.00,0000.91,0000.71
2024-02-20 16:42:00,SystemResetWarning,0828.8,4.99,000.00,022.5,022.1,000.0,030.7,024.3,14.0,0000.0,0002.68,0000.89,0000.71
2024-02-20 16:43:00,SystemResetWarning,0828.7,5.01,000.00,022.5,022.1,000.0,030.7,024.3,14.0,0000.0,0002.67,0000.91,0000.71
2024-02-20 16:44:00,SystemResetWarning,0828.8,5.01,000.00,022.5,022.1,000.0,030.7,024.3,13.9,0000.0,0002.50,0000.92,0000.71
2024-02-20 16:45:00,SystemResetWarning,0828.6,5.00,000.00,022.5,022.1,000.0,030.7,024.3,14.3,0000.0,0002.51,0000.92,0000.71
2024-02-20 16:46:00,SystemResetWarning,0828.7,4.99,000.00,022.6,022.1,000.0,030.8,024.3,14.0,0000.0,0002.50,0000.92,0000.72
2024-02-20 16:47:00,SystemResetWarning,0828.7,4.99,000.00,022.6,022.1,000.0,030.8,024.3,13.8,0000.0,0002.33,0000.93,0000.73
2024-02-20 16:48:00,SystemResetWarning,0828.6,5.00,000.00,022.6,022.1,000.0,030.8,024.3,13.8,0000.0,0003.28,0000.94,0000.73
2024-02-20 16:49:00,SystemResetWarning,0828.7,5.01,000.00,022.6,022.1,000.0,030.8,024.4,13.7,0000.0,0003.29,0000.94,0000.72
2024-02-20 16:50:00,SystemResetWarning,0828.7,5.01,000.00,022.6,022.1,000.0,030.8,024.4,13.6,0000.0,0004.77,0000.92,0000.73
2024-02-20 16:51:00,SystemResetWarning,0828.7,5.00,000.00,022.6,022.1,000.0,030.8,024.4,13.8,0000.0,0004.85,0000.95,0000.73
2024-02-20 16:52:00,SystemResetWarning,0828.8,4.99,000.00,022.6,022.2,000.0,030.8,024.4,13.8,0000.0,0004.88,0000.96,0000.73
2024-02-20 16:53:00,SystemResetWarning,0828.8,4.99,000.00,022.6,022.2,000.0,030.8,024.4,13.7,0000.0,0004.29,0000.96,0000.73
2024-02-20 16:54:00,SystemResetWarning,0828.7,4.99,000.00,022.6,022.2,000.0,030.8,024.4,13.5,0000.0,0004.13,0000.95,0000.74
2024-02-20 16:55:00,SystemResetWarning,0828.8,5.01,000.00,022.7,022.2,000.0,030.9,024.5,13.7,0000.0,0004.08,0000.94,0000.74
2024-02-20 16:56:00,SystemResetWarning,0828.8,5.01,000.00,022.7,022.2,000.0,030.9,024.5,13.7,0000.0,0004.00,0000.93,0000.75
2024-02-20 16:57:00,SystemResetWarning,0828.8,5.00,000.00,022.7,022.2,000.0,030.9,024.5,13.9,0000.0,0004.02,0000.93,0000.74
2024-02-20 16:58:00,SystemResetWarning,0828.8,4.99,000.00,022.7,022.3,000.0,030.9,024.5,14.0,0000.0,0004.02,0000.93,0000.74
2024-02-20 16:59:00,SystemResetWarning,0828.9,4.99,000.00,022.7,022.3,000.0,030.9,024.5,13.9,0000.0,0002.95,0000.91,0000.74
